Date,TemperatureHighF,TemperatureAvgF,TemperatureLowF,DewpointHighF,DewpointAvgF,DewpointLowF,HumidityHigh,HumidityAvg,HumidityLow,PressureMaxIn,PressureMinIn,WindSpeedMaxMPH,WindSpeedAvgMPH,GustSpeedMaxMPH,PrecipitationSumIn
2013-1-1,40,32,27,34,28,23,87,85,78,30.33,30.18,7,1,7,0.01
2013-1-2,42,30,22,35,26,19,88,84,71,30.18,30.06,9,1,9,0.00
2013-1-3,37,30,21,33,26,18,88,85,79,30.13,30.00,4,1,5,0.01
2013-1-4,53,41,35,48,36,31,87,83,72,30.20,30.05,6,1,6,0.00
2013-1-5,41,39,37,37,34,33,87,84,77,30.09,30.02,4,1,4,0.01
2013-1-6,47,42,38,43,38,34,87,85,82,30.11,29.97,7,1,7,0.01
2013-1-7,54,47,45,50,40,34,85,75,58,30.10,29.92,13,3,13,0.18
2013-1-8,57,50,46,52,44,35,86,78,62,30.09,29.86,15,4,15,0.04
2013-1-9,52,42,35,46,38,30,87,84,80,29.86,29.61,13,4,19,0.31
2013-1-10,44,37,32,40,31,25,86,80,60,29.98,29.85,7,2,10,0.13
2013-1-11,41,34,27,36,29,24,87,84,77,30.15,29.97,8,2,8,0.00
2013-1-12,36,28,22,32,24,19,88,86,78,30.26,30.14,5,1,7,0.01
2013-1-13,31,29,27,27,25,21,87,84,77,30.37,30.25,6,1,6,0.00
2013-1-14,37,31,27,33,28,24,87,86,82,30.44,30.35,5,1,5,0.00
2013-1-15,41,36,31,37,32,27,87,85,83,30.52,30.41,9,2,9,0.00
2013-1-16,36,34,32,32,30,27,87,83,80,30.52,30.36,6,1,6,0.00
2013-1-17,35,33,32,30,26,20,83,76,60,30.36,30.19,5,1,5,0.00
2013-1-18,37,34,32,30,23,19,79,66,57,30.20,30.13,3,1,3,0.00
2013-1-19,33,32,30,25,21,17,74,65,56,30.22,30.15,3,1,3,0.01
2013-1-20,34,31,29,26,20,17,76,63,57,30.23,30.13,3,1,3,0.00
2013-1-21,32,30,28,26,20,17,80,67,60,30.14,30.04,4,1,4,0.00
2013-1-22,34,30,27,27,20,16,77,67,61,30.04,29.82,4,1,4,0.00
2013-1-23,37,34,31,28,23,18,71,63,59,30.06,29.76,4,1,4,0.32
2013-1-24,41,37,31,22,19,16,59,48,42,30.09,29.99,4,1,4,0.20
2013-1-25,55,44,33,47,24,17,77,46,27,30.02,29.84,9,1,9,0.06
2013-1-26,48,39,33,42,23,11,81,53,29,29.99,29.83,8,1,8,0.23
2013-1-27,44,39,32,33,17,8,68,42,28,30.05,29.96,8,1,8,0.15
2013-1-28,45,42,37,38,24,-1,77,52,18,30.13,29.98,13,3,13,0.09
2013-1-29,48,44,38,41,33,14,80,65,37,30.39,30.13,11,2,11,0.01
2013-1-30,51,46,40,42,25,4,76,46,22,30.38,30.32,10,3,10,0.03
2013-1-31,54,47,42,48,28,-1,80,52,14,30.33,30.21,8,1,8,0.01
2013-2-1,54,43,34,46,19,-12,79,45,1,30.23,30.12,8,1,8,0.00
2013-2-2,44,38,32,26,5,-15,60,28,1,30.20,30.13,4,1,4,0.01
2013-2-3,49,43,37,41,9,-14,75,29,1,30.22,30.09,5,1,5,0.00
2013-2-4,52,45,38,46,28,-27,78,57,1,30.10,29.82,18,1,18,0.00
2013-2-5,53,46,42,46,34,17,79,65,30,29.93,29.79,15,4,15,0.21
2013-2-6,52,46,41,45,31,0,79,60,18,29.97,29.71,16,4,16,0.11
2013-2-7,47,39,33,40,29,11,79,67,35,29.98,29.81,11,2,11,0.05
2013-2-8,46,37,30,40,19,-13,79,53,11,30.14,29.98,7,1,7,0.00
2013-2-9,47,41,35,41,28,12,78,59,36,30.18,30.12,4,1,4,0.03
2013-2-10,46,44,42,40,24,0,78,50,16,30.22,30.15,7,1,7,0.01
2013-2-11,50,45,41,42,36,28,79,72,53,30.27,30.18,7,1,7,0.01
2013-2-12,56,48,44,48,33,8,77,58,22,30.36,30.27,11,3,11,0.03
2013-2-13,55,49,46,48,39,24,78,69,41,30.38,30.31,9,2,9,0.00
2013-2-14,59,46,35,49,35,7,78,67,25,30.43,30.32,8,1,8,0.00
2013-2-15,55,45,38,48,32,6,78,62,22,30.33,30.10,8,2,8,0.00
2013-2-16,53,45,38,45,17,-13,77,42,1,30.18,30.08,13,3,13,0.03
2013-2-17,48,41,35,41,30,12,78,65,37,30.17,29.96,6,1,6,0.00
2013-2-18,49,40,33,40,29,15,77,66,43,29.96,29.61,9,2,9,0.03
2013-2-19,52,42,37,43,31,12,77,65,30,29.87,29.53,9,2,9,0.15
2013-2-20,50,41,34,42,28,9,77,62,33,30.00,29.87,13,2,13,0.15
2013-2-21,46,40,32,39,18,-16,76,47,1,30.10,30.00,12,3,12,0.08
2013-2-22,46,43,38,35,21,-8,75,44,11,30.07,29.82,19,6,19,0.43
2013-2-23,49,40,34,41,23,-29,77,55,1,30.32,29.99,13,3,13,0.24
2013-2-24,54,42,34,41,28,7,76,59,31,30.32,29.97,12,2,12,0.00
2013-2-25,49,42,34,40,28,-10,75,60,11,30.28,29.94,17,5,17,0.46
2013-2-26,50,39,30,40,22,-17,75,54,2,30.28,30.11,7,1,7,0.01
2013-2-27,52,45,37,44,29,8,75,54,22,30.19,30.10,8,1,8,0.07
2013-2-28,60,52,47,50,19,-14,72,34,3,30.33,30.08,13,3,13,0.01
2013-3-1,62,54,47,52,30,-9,73,47,8,30.33,30.18,8,2,8,0.01
2013-3-2,55,50,42,46,30,-5,73,49,1,30.19,30.07,11,2,11,0.01
2013-3-3,52,41,32,39,28,1,76,61,24,30.20,30.09,12,2,12,0.01
2013-3-4,56,40,29,43,28,-2,74,65,21,30.09,29.78,6,1,6,0.00
2013-3-5,49,41,35,37,18,-9,70,44,6,29.78,29.49,6,1,10,0.38
2013-3-6,48,44,38,37,7,-11,68,26,1,29.84,29.42,13,3,13,0.37
2013-3-7,57,42,31,44,22,-33,73,49,1,29.93,29.84,7,1,7,0.02
2013-3-8,58,40,31,43,23,-14,73,52,10,30.07,29.88,5,1,5,0.00
2013-3-9,62,44,30,47,31,-14,74,62,3,30.38,30.07,7,1,7,0.00
2013-3-10,58,45,33,48,34,12,72,65,44,30.37,30.27,5,1,5,0.00
2013-3-11,61,53,48,52,37,21,71,56,33,30.28,30.13,6,0,6,0.00
2013-3-12,62,52,41,53,31,-10,72,50,1,30.12,30.03,5,0,5,0.00
2013-3-13,66,54,45,54,40,15,71,60,31,30.11,29.96,7,1,7,0.00
2013-3-14,57,52,44,46,40,20,72,66,44,30.09,29.92,19,4,19,0.00
2013-3-15,66,53,47,52,40,27,71,61,43,30.10,30.05,14,3,14,0.00
2013-3-16,52,46,40,42,30,-8,72,53,12,30.08,29.91,15,3,15,0.15
2013-3-17,51,42,33,40,25,-16,74,56,1,30.20,30.08,12,3,12,0.03
2013-3-18,55,42,30,41,29,-16,73,61,11,30.17,29.99,10,2,10,0.00
2013-3-19,49,44,38,40,26,-8,73,56,1,29.99,29.57,6,1,6,0.65
2013-3-20,52,48,36,41,15,-15,71,31,1,30.09,29.46,23,5,23,0.53
2013-3-21,50,40,34,40,15,-31,72,42,1,30.21,30.09,16,3,16,0.13
2013-3-22,49,40,33,38,23,-15,73,55,11,30.27,30.18,13,2,13,0.09
2013-3-23,52,40,32,40,26,-4,73,58,20,30.26,30.14,9,2,9,0.00
2013-3-24,57,48,36,43,37,21,72,64,52,30.14,29.95,10,2,10,0.00
2013-3-25,58,48,37,45,36,9,71,62,30,29.95,29.79,9,2,9,0.00
2013-3-26,56,50,44,46,34,-6,71,56,11,29.91,29.84,11,2,11,0.01
2013-3-27,64,50,40,52,19,-14,69,34,1,29.88,29.78,10,2,10,0.19
2013-3-28,66,54,46,53,22,-7,69,34,1,30.02,29.87,12,2,12,0.01
2013-3-29,69,56,47,56,32,-6,69,44,1,30.07,30.00,8,2,8,0.01
2013-3-30,76,58,41,57,33,-11,68,44,1,30.04,29.82,11,2,11,0.00
2013-3-31,74,58,45,58,44,15,67,59,27,29.91,29.81,16,3,16,0.00
2013-4-1,61,55,50,51,37,17,69,52,25,30.06,29.90,9,3,9,0.00
2013-4-2,71,56,48,56,34,-6,70,48,1,30.08,29.99,8,2,8,0.00
2013-4-3,66,53,40,54,36,-8,69,55,1,30.03,29.77,6,1,7,0.00
2013-4-4,61,56,52,50,22,-21,69,34,1,29.78,29.57,16,4,16,0.16
2013-4-5,56,53,51,45,18,-4,68,29,1,29.85,29.74,13,4,13,0.12
2013-4-6,57,51,48,47,13,-6,69,26,1,29.90,29.60,15,3,15,0.77
2013-4-7,52,47,41,41,26,-13,71,47,1,29.87,29.51,24,6,24,0.21
2013-4-8,57,46,36,46,22,-15,70,46,1,30.16,29.86,12,3,12,0.02
2013-4-9,62,49,40,49,35,8,69,58,27,30.23,30.13,5,1,5,0.00
2013-4-10,61,51,44,50,31,-8,70,50,3,30.22,30.05,16,4,16,0.01
2013-4-11,58,47,36,45,30,-14,71,56,1,30.23,30.02,6,1,6,0.00
2013-4-12,61,46,35,49,29,-14,70,54,6,30.03,29.77,13,3,13,0.02
2013-4-13,55,45,37,40,32,13,72,62,33,30.01,29.86,16,4,16,0.13
2013-4-14,51,44,37,42,29,9,72,57,27,29.99,29.83,8,2,8,0.15
2013-4-15,56,46,40,44,34,21,72,63,47,30.06,29.82,13,3,13,0.08
2013-4-16,60,48,36,46,35,11,71,62,29,30.28,30.05,14,3,14,0.00
2013-4-17,62,48,36,49,36,1,71,63,18,30.37,30.27,11,2,11,0.00
2013-4-18,66,53,43,51,41,28,70,65,50,30.36,30.21,11,3,11,0.00
2013-4-19,59,52,49,49,28,-5,69,46,1,30.21,30.08,15,4,15,0.18
2013-4-20,63,53,45,50,36,11,71,54,22,30.23,30.13,12,4,12,0.00
2013-4-21,59,51,44,49,41,33,71,68,64,30.18,30.11,9,2,9,0.00
2013-4-22,67,55,43,46,39,32,71,56,36,30.26,30.17,13,3,13,0.02
2013-4-23,72,55,37,43,37,29,73,52,29,30.22,30.00,13,2,13,0.00
2013-4-24,76,59,38,45,38,29,72,48,28,30.08,29.88,11,2,11,0.00
2013-4-25,77,59,42,53,43,32,71,58,41,30.02,29.89,7,2,8,0.00
2013-4-26,81,62,43,57,44,31,69,54,30,30.11,30.02,8,2,8,0.00
2013-4-27,74,58,44,48,41,35,70,54,34,30.15,30.08,14,4,14,0.00
2013-4-28,69,57,50,52,43,33,69,60,46,30.16,30.01,11,4,11,0.00
2013-4-29,62,53,41,45,34,-4,70,51,3,30.11,30.00,15,5,15,0.04
2013-4-30,59,46,33,42,34,20,72,63,49,30.29,30.11,8,2,8,0.00
2013-5-1,71,52,36,45,36,26,72,56,37,30.36,30.28,12,2,12,0.00
2013-5-2,80,61,40,48,41,31,71,50,26,30.28,30.10,12,2,12,0.00
2013-5-3,80,62,44,54,43,33,70,51,35,30.16,29.98,13,2,13,0.00
2013-5-4,84,66,46,53,42,36,69,45,19,29.99,29.73,16,3,16,0.00
2013-5-5,86,72,56,53,43,35,67,36,25,29.75,29.53,17,5,17,0.00
2013-5-6,80,62,49,57,47,35,68,59,39,29.82,29.67,15,4,15,0.00
2013-5-7,74,59,48,58,44,22,67,57,36,29.93,29.81,13,4,13,0.00
2013-5-8,72,56,49,57,41,27,67,59,44,30.02,29.93,9,3,11,0.00
2013-5-9,82,63,47,61,46,18,66,54,29,30.08,29.95,10,2,10,0.00
2013-5-10,84,61,51,63,46,29,66,57,41,30.08,30.00,15,3,16,0.00
2013-5-11,86,66,51,65,50,28,65,56,42,30.09,29.90,13,3,13,0.00
2013-5-12,74,64,58,61,49,25,66,59,32,30.02,29.95,14,3,14,0.00
2013-5-13,68,59,50,52,43,27,69,56,34,30.11,29.95,19,4,19,0.00
2013-5-14,71,57,43,51,40,10,67,54,27,30.11,29.97,9,2,9,0.00
2013-5-16,63,56,50,51,33,-2,68,46,1,29.89,29.83,12,2,12,0.10
2013-5-17,65,55,48,51,40,23,69,58,35,29.99,29.88,13,2,13,0.01
2013-5-18,63,54,48,51,36,16,67,52,24,30.15,29.98,10,2,12,0.05
2013-5-19,68,58,49,54,40,1,68,54,12,30.27,30.15,8,2,10,0.00
2013-5-20,75,57,42,56,41,3,69,55,16,30.20,29.82,10,3,12,0.00
2013-5-21,52,48,41,42,26,-4,68,44,5,29.90,29.74,11,3,15,0.53
2013-5-22,54,47,41,43,21,-9,68,39,11,29.89,29.83,12,4,12,0.11
2013-5-23,56,50,46,46,25,0,69,40,16,29.92,29.87,14,4,14,0.15
2013-5-24,60,52,47,48,29,-6,69,47,10,29.97,29.88,16,3,16,0.03
2013-5-25,70,55,42,55,35,-10,67,49,3,29.97,29.82,9,2,9,0.07
2013-5-26,64,56,52,52,31,-4,68,45,1,29.94,29.83,17,4,17,0.09
2013-5-27,65,56,51,53,28,-7,67,39,1,29.87,29.64,18,5,18,0.31
2013-5-28,62,56,52,50,32,-3,68,46,1,29.84,29.64,19,4,19,0.19
2013-5-29,63,55,50,51,24,-4,67,36,1,29.97,29.53,19,5,19,0.29
2013-5-30,64,55,48,51,34,-6,68,50,8,30.13,29.96,12,2,12,0.03
2013-5-31,71,59,45,55,44,16,68,58,28,30.20,30.09,9,2,9,0.00
2013-6-1,79,62,46,60,45,13,67,56,28,30.11,29.90,11,2,11,0.00
2013-6-2,73,61,52,57,47,32,67,60,42,29.96,29.91,12,2,12,0.00
2013-6-3,78,62,46,58,45,-6,66,54,8,29.97,29.88,12,2,12,0.00
2013-6-4,68,54,48,54,40,25,66,59,40,29.95,29.92,8,2,8,0.00
2013-6-5,86,69,53,63,53,32,66,56,40,29.95,29.84,8,3,10,0.00
2013-6-6,85,68,55,65,52,29,66,56,39,29.94,29.85,14,4,14,0.00
2013-6-7,82,66,51,62,50,33,67,58,34,30.01,29.93,12,3,12,0.00
2013-6-8,83,66,50,58,46,21,66,50,29,30.03,29.91,12,3,12,0.00
2013-6-9,78,63,51,56,49,36,68,59,44,29.97,29.84,12,3,12,0.00
2013-6-10,75,59,46,54,45,31,68,59,42,29.88,29.77,15,4,15,0.00
2013-6-11,67,58,52,50,45,40,68,62,50,30.03,29.87,14,4,14,0.00
2013-6-12,67,56,44,52,41,1,67,58,17,30.07,30.01,13,4,13,0.00
2013-6-13,65,55,49,53,32,-4,66,46,3,30.18,30.05,14,3,14,0.22
2013-6-14,74,60,44,57,40,-7,66,50,3,30.18,29.84,11,2,11,0.01
2013-6-15,80,62,47,61,44,2,65,53,15,29.89,29.79,12,2,12,0.00
2013-6-16,77,63,51,59,47,25,66,56,34,30.00,29.91,9,4,9,0.00
2013-6-17,77,61,48,55,43,7,66,53,17,30.01,29.85,15,3,15,0.00
2013-6-18,68,59,48,52,44,20,68,60,30,29.91,29.83,15,4,15,0.00
2013-6-19,66,58,50,52,42,22,66,56,30,30.00,29.84,8,2,8,0.01
2013-6-20,68,58,49,52,38,0,66,49,12,30.01,29.95,10,2,10,0.18
2013-6-21,74,61,52,57,43,18,66,53,25,30.05,29.99,5,1,5,0.00
2013-6-22,82,67,49,58,47,-2,65,50,8,29.98,29.74,14,2,14,0.00
2013-6-23,75,64,59,61,41,4,66,45,10,29.74,29.51,11,2,11,0.16
2013-6-24,62,58,55,49,36,27,62,45,33,29.58,29.48,9,3,10,0.01
2013-6-25,66,63,59,54,42,-16,66,51,1,29.74,29.65,14,5,14,0.01
2013-6-26,72,64,57,59,29,1,65,32,1,29.91,29.74,8,1,8,0.11
2013-6-27,82,69,57,66,42,1,64,42,1,30.02,29.89,12,2,12,0.00
2013-6-28,91,73,58,71,47,2,63,42,1,30.02,29.91,12,3,12,0.00
2013-6-29,89,75,62,66,58,50,66,57,43,29.99,29.83,11,2,11,0.00
2013-6-30,94,75,59,72,55,5,64,52,10,29.85,29.74,14,3,14,0.00
2013-7-1,91,75,62,72,57,28,64,55,33,29.88,29.79,11,4,11,0.00
2013-7-2,89,74,60,70,55,11,64,52,16,29.95,29.87,14,4,14,0.00
2013-7-3,89,71,58,63,51,34,65,51,33,30.00,29.90,12,4,12,0.00
2013-7-4,81,66,51,60,50,35,66,58,42,30.01,29.88,10,2,15,0.00
2013-7-5,80,64,50,59,49,30,66,57,42,29.95,29.81,13,3,13,0.00
2013-7-6,81,65,50,63,50,29,65,58,39,29.84,29.73,11,3,12,0.00
2013-7-7,81,66,53,63,47,17,65,53,23,29.86,29.75,13,4,13,0.00
2013-7-8,86,68,52,62,50,11,65,53,18,29.95,29.85,8,2,9,0.00
2013-7-9,92,72,55,65,52,18,65,50,22,29.95,29.84,4,0,4,0.00
2013-7-10,86,69,54,62,52,38,66,57,41,29.93,29.80,0,0,0,0.00
2013-7-11,80,64,49,57,48,35,67,57,35,29.96,29.82,0,0,0,0.00
2013-7-12,79,63,49,55,46,36,67,56,34,29.97,29.86,0,0,0,0.00
2013-7-13,84,66,49,55,47,35,67,52,29,30.02,29.88,0,0,0,0.00
2013-7-14,90,70,52,61,50,36,65,51,26,29.95,29.82,0,0,0,0.00
2013-7-15,89,70,52,61,52,41,67,54,34,29.87,29.66,0,0,0,0.00
2013-7-16,80,66,57,64,52,41,65,60,49,29.90,29.64,0,0,0,0.00
2013-7-17,81,66,58,60,51,45,66,59,43,30.04,29.90,0,0,0,0.00
2013-7-18,88,68,51,64,51,29,66,55,38,30.06,29.93,0,0,0,0.00
2013-7-19,87,68,52,65,50,15,66,55,22,30.01,29.87,0,0,0,0.00
2013-7-20,86,67,52,65,49,22,65,54,28,29.95,29.80,0,0,0,0.00
2013-7-21,89,69,50,65,50,24,65,53,30,29.84,29.74,0,0,0,0.00
2013-7-22,89,71,54,61,51,28,65,51,34,29.90,29.79,0,0,0,0.00
2013-7-23,95,74,55,66,53,21,65,49,24,29.90,29.79,0,0,0,0.00
2013-7-24,94,74,56,64,54,41,66,52,30,29.90,29.82,0,0,0,0.00
2013-7-25,93,74,57,62,53,42,66,50,26,29.94,29.85,0,0,0,0.00
2013-7-26,93,72,55,60,52,41,67,51,27,30.01,29.90,0,0,0,0.00
2013-7-27,85,66,51,57,49,40,68,56,35,30.05,29.88,0,0,0,0.00
2013-7-28,80,64,49,59,49,32,67,58,45,29.94,29.82,0,0,0,0.00
2013-7-29,79,63,49,58,48,22,67,58,35,29.92,29.82,0,0,0,0.00
2013-7-30,83,65,51,62,48,27,65,56,37,30.01,29.91,0,0,0,0.00
2013-7-31,75,62,56,61,45,25,66,53,29,29.99,29.92,0,0,0,0.00
2013-8-1,66,61,58,54,47,35,67,60,44,30.00,29.95,0,0,0,0.00
2013-8-2,77,64,55,60,47,28,66,54,34,30.02,29.95,0,0,0,0.00
2013-8-3,85,68,53,63,46,0,66,48,3,29.98,29.83,0,0,0,0.01
2013-8-4,91,71,55,66,51,13,66,51,17,29.89,29.77,0,0,0,0.00
2013-8-5,91,72,55,68,53,30,66,53,37,29.88,29.77,0,0,0,0.00
2013-8-6,94,73,54,60,51,39,67,49,24,29.87,29.76,0,0,0,0.00
2013-8-7,72,62,56,58,49,33,67,63,43,29.92,29.81,0,0,0,0.00
2013-8-8,88,67,53,64,46,10,66,49,20,29.94,29.77,0,0,0,0.00
2013-8-9,87,70,61,65,54,36,66,57,41,29.82,29.69,0,0,0,0.00
2013-8-10,75,63,57,61,45,21,67,52,27,29.94,29.79,0,0,0,0.04
2013-8-11,76,63,57,60,46,23,67,55,28,29.95,29.87,0,0,0,0.00
2013-8-12,78,64,56,61,50,37,69,59,48,29.95,29.89,0,0,0,0.00
2013-8-13,86,62,49,62,46,24,68,58,34,29.98,29.84,0,0,0,0.00
2013-8-15,79,72,64,66,55,34,66,57,33,29.85,29.81,0,0,0,0.00
2013-8-16,85,71,62,69,47,7,68,45,11,29.94,29.84,0,0,0,0.00
2013-8-17,83,67,54,64,52,31,68,59,39,29.97,29.91,0,0,0,0.00
2013-8-18,87,69,55,66,50,19,67,52,22,30.02,29.89,0,0,0,0.00
2013-8-19,87,70,57,65,52,21,68,54,24,29.99,29.89,13,2,13,0.49
2013-8-20,87,70,52,58,50,39,69,52,26,30.00,29.83,4,0,4,0.00
2013-8-21,90,71,54,61,53,44,69,54,35,29.87,29.71,0,0,0,0.00
2013-8-22,83,68,60,62,54,40,68,60,47,29.80,29.73,0,0,0,0.00
2013-8-23,77,64,56,60,46,27,67,52,29,29.83,29.77,0,0,0,0.00
2013-8-24,76,66,60,60,52,40,69,59,47,29.79,29.73,0,0,0,0.00
2013-8-25,67,61,54,55,45,30,68,57,39,29.81,29.77,0,0,0,0.00
2013-8-26,79,64,53,58,38,-1,67,43,6,29.85,29.79,0,0,0,0.00
2013-8-27,84,67,61,63,53,44,66,62,44,29.84,29.67,0,0,0,0.00
2013-8-28,81,69,60,64,44,4,66,45,1,29.78,29.71,0,0,0,0.04
2013-8-29,76,68,62,63,36,5,66,36,1,29.95,29.73,0,0,0,0.12
2013-8-30,84,72,60,64,51,6,67,51,11,30.02,29.91,0,0,0,0.00
2013-8-31,89,69,54,65,51,20,66,54,22,29.91,29.71,0,0,0,0.00
2013-9-1,85,68,54,60,48,28,67,50,32,29.79,29.68,0,0,0,0.00
2013-9-2,80,68,63,58,53,43,67,58,44,29.82,29.75,0,0,0,0.00
2013-9-3,81,70,60,60,55,47,67,59,43,29.89,29.81,0,0,0,0.00
2013-9-4,76,66,59,61,52,40,66,60,50,29.92,29.88,0,0,0,0.00
2013-9-5,69,62,58,57,30,-3,66,35,1,29.95,29.87,0,0,0,1.60
2013-9-6,72,63,57,59,24,2,65,25,1,30.03,29.94,0,0,0,0.33
2013-9-7,79,63,53,64,25,-2,62,27,1,29.97,29.82,0,0,0,0.01
2013-9-8,86,69,55,67,35,0,63,33,1,29.93,29.84,0,0,0,0.00
2013-9-9,86,70,57,67,40,1,62,38,1,29.89,29.77,0,0,0,0.00
2013-9-10,90,72,58,69,42,0,62,39,1,29.79,29.63,0,0,0,0.00
2013-9-11,86,69,58,65,39,2,62,37,1,29.84,29.66,0,0,0,0.00
2013-9-12,81,66,58,66,32,2,63,33,1,29.88,29.79,9,1,9,0.00
2013-9-13,82,65,55,66,29,0,63,30,1,29.85,29.71,8,1,8,0.00
2013-9-14,78,64,57,63,22,1,61,21,1,29.72,29.59,5,0,5,0.00
2013-9-15,69,63,59,50,26,3,56,28,1,29.79,29.61,5,0,5,0.00
2013-9-16,74,63,58,59,37,5,63,42,12,29.86,29.77,11,1,11,0.00
2013-9-17,71,62,57,55,29,2,65,35,1,29.91,29.73,10,1,13,0.03
2013-9-18,73,61,51,56,32,-2,65,39,1,29.97,29.87,0,0,0,0.01
2013-9-19,80,59,44,58,39,-5,64,49,2,29.87,29.66,0,0,0,0.00
2013-9-20,72,57,47,57,36,-2,64,47,12,29.66,29.55,0,0,0,0.10
2013-9-21,64,60,52,58,55,51,97,85,72,29.77,29.69,3,1,11,0.01
2013-9-22,63,58,51,58,54,50,98,88,79,29.86,29.68,10,3,24,0.05
2013-9-23,62,58,54,58,55,52,97,90,78,29.97,29.86,6,1,16,0.05
2013-9-24,60,54,50,55,52,48,98,93,72,29.96,29.85,6,1,12,0.31
2013-9-25,61,52,47,54,49,46,98,89,69,30.02,29.85,5,1,10,0.22
2013-9-26,65,53,43,56,48,42,98,84,57,30.16,30.02,3,1,8,0.04
2013-9-27,55,50,41,54,49,40,98,95,89,30.16,29.93,6,2,16,0.33
2013-9-28,62,57,52,60,56,51,97,95,90,29.93,29.52,9,4,27,1.59
2013-9-29,58,54,52,55,52,48,97,94,77,29.69,29.43,12,5,24,2.32
2013-9-30,61,54,50,54,50,47,94,86,68,30.00,29.62,12,4,21,0.26
2013-10-1,61,52,42,53,47,42,98,86,54,30.18,29.98,10,1,17,0.45
2013-10-2,57,46,37,51,44,36,99,94,73,30.17,30.06,4,0,8,0.24
2013-10-3,60,46,38,50,43,37,99,90,59,30.39,30.17,4,0,10,0.01
2013-10-4,64,46,34,51,43,34,99,89,55,30.43,30.30,3,0,8,0.00
2013-10-5,70,50,35,53,44,35,99,84,49,30.31,30.11,2,0,7,0.00
2013-10-6,76,55,39,54,46,37,99,77,25,30.12,29.94,10,2,17,0.00
2013-10-7,63,55,48,52,49,46,95,81,56,30.14,29.98,9,2,17,0.00
2013-10-8,56,50,42,52,48,41,97,91,78,30.15,29.98,7,2,16,0.04
2013-10-9,62,48,37,46,42,36,98,82,49,30.07,29.95,5,1,11,0.00
2013-10-10,64,51,40,52,46,39,98,85,56,30.07,29.93,6,1,12,0.00
2013-10-11,59,52,45,47,45,41,93,76,53,30.12,30.06,4,0,9,0.00
2013-10-12,59,49,44,50,46,43,96,87,68,30.13,30.04,3,0,6,0.00
2013-10-13,62,48,38,49,44,38,98,88,58,30.26,30.13,4,1,9,0.00
2013-10-14,67,51,36,48,43,35,98,76,46,30.32,30.22,5,1,10,0.00
2013-10-15,70,52,36,45,41,34,97,70,35,30.25,30.09,5,0,11,0.00
2013-10-16,69,49,35,51,43,34,98,82,50,30.13,30.07,2,0,7,0.00
2013-10-17,65,47,38,51,43,37,98,88,56,30.20,30.10,3,0,8,0.00
2013-10-18,71,50,35,50,43,35,98,81,42,30.15,30.04,3,0,10,0.00
2013-10-19,70,49,34,53,44,33,98,85,51,30.13,30.06,2,0,5,0.00
2013-10-20,69,49,38,54,45,37,98,88,52,30.13,30.02,2,0,4,0.00
2013-10-21,72,49,37,55,46,37,98,89,52,30.07,29.94,3,0,5,0.00
2013-10-22,75,51,40,56,46,39,99,87,49,30.02,29.92,1,0,4,0.00
2013-10-23,72,51,41,58,48,40,99,90,58,29.99,29.91,2,0,4,0.00
2013-10-24,64,49,41,55,48,40,99,95,73,30.07,29.95,2,0,4,0.00
2013-10-25,53,50,46,50,49,46,99,96,91,30.24,30.07,3,1,7,0.00
2013-10-26,52,50,49,50,48,47,97,93,87,30.26,30.14,4,1,6,0.00
2013-10-27,57,51,44,52,47,41,97,85,66,30.15,29.80,9,1,16,0.10
2013-10-28,59,51,37,44,39,34,89,65,42,29.88,29.76,5,1,14,0.00
2013-10-29,59,42,29,38,33,28,97,75,35,30.05,29.88,3,0,6,0.00
2013-10-30,62,44,28,46,37,27,97,78,47,30.16,30.05,4,0,7,0.00
2013-10-31,58,53,47,53,48,42,98,85,72,30.24,30.15,2,0,6,0.00
2013-11-1,58,52,48,51,49,47,98,92,76,30.25,29.94,3,0,7,0.00
2013-11-2,56,49,39,50,45,38,98,87,63,30.08,29.77,13,4,22,0.25
2013-11-3,50,44,37,46,41,37,98,90,76,30.18,30.08,7,1,13,0.05
2013-11-4,51,46,42,46,44,40,97,92,81,30.17,30.10,6,2,14,0.11
2013-11-5,52,50,48,51,49,46,99,97,94,30.23,30.10,4,1,13,0.38
2013-11-6,60,54,50,57,53,50,99,97,89,30.26,30.07,2,0,5,0.05
2013-11-7,56,51,43,55,49,42,99,93,74,30.14,29.91,9,2,19,0.28
2013-11-8,53,47,40,49,45,40,98,94,81,30.19,30.08,3,0,8,0.03
2013-11-9,48,44,38,45,43,38,99,95,88,30.09,30.01,1,0,4,0.00
2013-11-10,55,44,38,50,43,37,99,96,83,30.07,30.02,2,0,4,0.00
2013-11-11,50,44,40,48,44,40,99,98,92,30.12,30.00,2,0,4,0.00
2013-11-12,59,49,45,56,49,45,99,98,90,30.40,30.08,3,0,6,0.25
2013-11-13,51,48,44,51,47,44,99,98,95,30.45,30.26,3,0,7,0.01
2013-11-14,52,47,43,48,46,42,99,94,82,30.27,30.08,3,1,6,0.11
2013-11-15,48,44,37,46,43,36,99,96,90,30.09,29.62,7,2,21,0.05
2013-11-16,52,48,44,47,43,42,98,86,70,29.87,29.59,12,3,21,0.08
2013-11-17,55,48,42,48,45,41,97,90,77,30.00,29.87,8,3,17,0.00
2013-11-18,51,48,43,49,45,42,97,90,79,29.99,29.74,7,2,17,0.42
2013-11-19,54,50,41,53,48,34,98,93,78,29.99,29.71,7,2,18,0.34
2013-11-20,46,38,31,35,31,23,94,75,61,30.33,30.00,5,1,16,0.01
2013-11-21,48,37,26,23,19,14,82,51,28,30.53,30.33,4,1,12,0.00
2013-11-22,51,32,20,27,22,18,95,72,33,30.53,30.34,5,0,14,0.00
2013-11-23,53,36,22,30,26,20,94,71,35,30.34,30.13,5,0,10,0.00
2013-11-24,53,34,22,34,28,21,97,80,46,30.26,30.14,2,0,5,0.00
2013-11-25,50,34,23,37,30,22,97,87,59,30.33,30.26,2,0,3,0.00
2013-11-26,45,35,26,40,33,25,98,92,81,30.27,30.05,2,0,4,0.00
2013-11-27,46,36,28,40,34,28,98,92,75,30.05,29.93,2,0,4,0.00
2013-11-28,52,36,26,39,32,25,98,87,58,30.19,30.00,1,0,3,0.00
2013-11-29,45,35,25,40,34,24,98,93,82,30.35,30.18,2,0,4,0.01
2013-11-30,52,43,34,47,41,33,98,94,81,30.38,30.23,4,0,6,0.01
2013-12-1,56,53,49,54,51,45,97,91,87,30.24,29.97,9,4,21,0.40
2013-12-2,52,43,33,52,40,32,98,92,81,30.04,29.92,8,3,18,1.01
2013-12-3,41,34,26,37,31,22,99,90,70,30.24,30.04,3,0,9,0.00
2013-12-4,38,28,21,25,20,17,93,72,43,30.30,30.23,5,0,11,0.00
2013-12-5,33,23,14,23,18,13,95,84,59,30.28,30.13,2,0,4,0.00
2013-12-6,28,26,23,25,22,17,95,87,73,30.14,29.91,2,0,13,0.00
2013-12-7,29,21,8,17,11,5,92,66,46,30.38,30.02,4,1,15,0.00
2013-12-8,25,12,-1,19,7,-4,92,82,61,30.56,30.41,3,0,5,0.00
2013-12-9,29,17,4,22,13,2,93,86,71,30.63,30.52,3,0,4,0.00
2013-12-10,33,24,17,27,21,15,96,89,75,30.54,30.39,2,0,4,0.00
2013-12-11,31,20,13,26,18,12,96,92,81,30.40,30.21,2,0,3,0.00
2013-12-12,39,26,15,38,25,13,98,96,93,30.22,30.11,3,0,9,0.00
2013-12-13,51,40,33,47,39,32,99,96,85,30.42,30.21,2,0,6,0.00
2013-12-14,41,38,36,40,38,36,99,99,97,30.45,30.36,4,0,6,0.00
2013-12-15,48,42,38,45,41,37,99,96,87,30.46,30.40,2,0,5,0.00
2013-12-16,46,43,39,44,42,39,98,95,89,30.45,30.23,5,1,10,0.00
2013-12-17,40,38,37,39,38,37,99,98,94,30.23,30.16,2,0,5,0.00
2013-12-18,42,38,33,41,38,33,99,99,97,30.17,30.03,4,0,8,0.00
2013-12-19,43,33,28,43,32,28,99,95,80,30.30,30.11,4,0,8,0.00
2013-12-20,42,37,31,42,36,30,99,96,90,30.23,29.93,6,2,17,0.00
2013-12-21,52,46,41,48,45,41,100,94,84,30.24,29.96,6,1,12,0.02
2013-12-22,56,47,41,50,45,40,99,94,79,30.35,30.24,6,0,10,0.06
2013-12-23,53,45,36,51,44,35,99,97,90,30.52,30.32,6,1,16,0.10
2013-12-24,45,34,29,44,34,29,99,99,91,30.58,30.46,3,0,6,0.02
2013-12-25,36,34,33,36,34,32,99,98,97,30.47,30.37,2,0,4,0.00
2013-12-26,34,33,31,34,33,31,99,99,98,30.39,30.22,1,0,3,0.00
2013-12-27,36,33,31,36,33,30,99,99,99,30.38,30.19,3,0,4,0.00
2013-12-28,44,38,32,41,36,32,99,94,85,30.49,30.38,2,0,8,0.00
2013-12-29,42,39,36,39,37,35,97,92,87,30.44,30.27,3,1,8,0.00
2013-12-30,41,37,34,39,36,33,99,96,90,30.27,30.18,2,0,5,0.00
2013-12-31,51,40,33,45,38,32,99,94,77,30.32,30.23,3,0,6,0.09
2014-1-1,40,37,31,40,36,31,99,99,98,30.35,30.25,2,0,4,0.00
2014-1-2,44,39,36,43,38,35,99,99,97,30.26,30.06,2,0,5,0.00